Weather Roundup
Issued by NWS

Home | Current Version | Previous Version | Text Only | Print | Product List | Glossary On
Versions: 1 2 3 4 5 6 7 8 9 10 11 12 13 14 15 16 17 18 19 20 21 22 23 24 25 26 27 28 29 30 31 32 33 34 35 36 37 38 39 40 41 42 43 44 45 46 47 48 49 50
339
NZUS93 KARX 132110
HRRWXR

CURRENT HOURLY OBSERVATIONS ACROSS
MUCH OF THE UPPER MISSISSIPPI VALLEY
NATIONAL WEATHER SERVICE LA CROSSE WI
300 PM CST SAT FEB 13 2016


...SOUTHEAST MINNESOTA...


CITY           SKY/WX    TMP DP  RH WIND       PRES   REMARKS
ROCHESTER      SUNNY      5  -7  57 SE5       30.45F WCI  -4
ROCHESTER/MAYO FAIR      10  -9  42 SE5       30.47F WCI   2
WINONA         SUNNY     14  -6  41 CALM      30.53F
AUSTIN         CLOUDY     3  -8  60 SE6       30.46F WCI  -8
ALBERT LEA     CLOUDY     7  -6  56 SE7       30.45F WCI  -5
DODGE CENTER   SUNNY      9  -8  47 SE7       30.45F WCI  -3
PRESTON        SUNNY      9 -10  42 CALM      30.47F
OWATONNA       SUNNY     10  -6  48 S8        30.45F WCI  -1
FARIBAULT      SUNNY     10  -6  48 S3        30.47F
$$

...ELSEWHERE IN MINNESOTA...


CITY           SKY/WX    TMP DP  RH WIND       PRES   REMARKS
MINNEAPOLIS    SUNNY      9 -10  42 SE8       30.49F WCI  -3
INTNL FALLS    CLOUDY     5 -15  39 SE5       30.39F WCI  -4
DULUTH         SUNNY      8 -13  37 CALM      30.39F
RED WING       SUNNY     10 -11  37 SE3       30.51F
REDWOOD FALLS  CLOUDY     7  -1  70 SE17      30.42F WCI -12
MANKATO        CLOUDY     7  -2  66 SE13      30.45F WCI  -9
WORTHINGTON    CLOUDY     7  -2  66 SE16      30.35F WCI -11
FAIRMONT       CLOUDY     9   0  66 SE16      30.42F WCI  -9
$$

...SOUTHWEST WISCONSIN...


CITY           SKY/WX    TMP DP  RH WIND       PRES   REMARKS
LA CROSSE      SUNNY     10 -10  40 CALM      30.53F
PRAIRIE DU CHI SUNNY     12 -11  34 CALM      30.54F
BOSCOBEL       SUNNY     15 -11  30 CALM      30.54F
LONE ROCK      SUNNY     11  -9  40 SW5       30.53F WCI   3
PLATTEVILLE    SUNNY     10  -7  46 CALM      30.52F
FORT MC COY    SUNNY     11 -10  38 CALM      30.52F
CAMP DOUGLAS   MOSUNNY   10  -9  40 SW2       30.50F
VIROQUA        FAIR      13  -9  37 CALM      30.46F
WIS DELLS      SUNNY     10 -12  37 W7        30.50F WCI  -1
$$

...ELSEWHERE IN WISCONSIN...


CITY           SKY/WX    TMP DP  RH WIND       PRES   REMARKS
MILWAUKEE      MOSUNNY   12  -9  38 NW12      30.52F WCI  -2
MADISON        MOSUNNY   10  -8  44 VRB6      30.52F WCI   0
GREEN BAY      SUNNY     10  -6  48 SW7       30.50S WCI  -1
EAU CLAIRE     SUNNY      6 -11  45 CALM      30.51F
BLACK RVR FLS  FAIR      11 -13  32 SW5       30.51F WCI   3
MEDFORD        SUNNY      7 -11  42 W7        30.42F WCI  -4
WAUSAU         SUNNY      7  -8  50 W9        30.44F WCI  -7
WIS RAPIDS     SUNNY     10 -12  36 NW7       30.50F WCI  -1
MARSHFIELD     SUNNY      7 -11  43 NW8       30.45F WCI  -6
RICE LAKE      SUNNY      7 -13  40 CALM      30.49F
$$

...NORTHEAST IOWA...


CITY           SKY/WX    TMP DP  RH WIND       PRES   REMARKS
WATERLOO       CLOUDY     8  -4  58 E7        30.52F WCI  -3
DUBUQUE        SUNNY     12  -7  42 VRB5      30.51F WCI   4
DECORAH        SUNNY      9  -8  47 VRB6      30.48F WCI  -1
MASON CITY     CLOUDY     5  -4  66 SE9       30.48F WCI  -9
CHARLES CITY   CLOUDY     7  -8  51 SW6       30.49F WCI  -3
OELWEIN        SUNNY      7  -6  56 CALM      30.51F
$$

...ELSEWHERE IN IOWA...


CITY           SKY/WX    TMP DP  RH WIND       PRES   REMARKS
DES MOINES     CLOUDY    14  -2  49 SE9       30.49F WCI   2
IOWA CITY      CLOUDY    18  -7  32 VRB3      30.56F
FORT DODGE     CLOUDY     9  -2  61 SE7       30.45F WCI  -3
MARSHALLTOWN   CLOUDY    12  -1  56 SE6       30.49F WCI   3
CEDAR RAPIDS   PTSUNNY   16  -2  45 VRB3      30.52F
$$

...NORTHERN ILLINOIS...


CITY           SKY/WX    TMP DP  RH WIND       PRES   REMARKS
CHICAGO-OHARE  MOSUNNY   17  -5  37 NW9       30.53S WCI   6
CHICAGO-MIDWAY MOSUNNY   19  -8  30 NW9G16    30.54S WCI   8
MOLINE         CLOUDY    19  -6  33 SW6       30.55F WCI  11
ROCKFORD       MOSUNNY   16  -7  35 VRB5      30.55F WCI   9
PEORIA         CLOUDY    20  -6  31 N6        30.56F WCI  12
$$

NOTE: "FAIR" INDICATES FEW OR NO CLOUDS BELOW 12,000 FEET WITH NO
SIGNIFICANT WEATHER AND/OR OBSTRUCTIONS TO VISIBILITY. WIND
SPEEDS ARE IN MILES-PER-HOUR.




USA.gov is the U.S. government's official web portal to all federal, state and local government web resources and services.